Weather History for Buffalo, WY

Change the Weather History Date:

Friday, March 22, 2013

  Actual Average Record
Temperature  
Mean Temperature 23 °F 36 °F  
Max Temperature 32 °F 48 °F 70 °F (2012)
Min Temperature 13 °F 24 °F 11 °F (2014)
Degree Days  
Heating Degree Days 42 29  
Month to date heating degree days 665 701  
Since 1 July heating degree days 5614 5941  
Cooling Degree Days 0 0  
Month to date cooling degree days 0 0  
Year to date cooling degree days 0 0  
Moisture  
Dew Point 15 °F    
Average Humidity 69    
Maximum Humidity 92    
Minimum Humidity 46    
Precipitation  
Precipitation 0.01 in 0.04 in 0.18 in (2009)
Month to date precipitation 0.08 0.56  
Year to date precipitation 0.69 1.33  
Sea Level Pressure  
Sea Level Pressure 29.95 in    
Wind  
Wind Speed 16 mph (NNW)    
Max Wind Speed 24 mph    
Max Gust Speed 35 mph    
Visibility 6 miles    
Events Fog , Snow    
T = Trace of Precipitation, MM = Missing Value Source: NWS Daily Summary

Daily Weather History Graph

Daily Weather History Graph

Search for Another Location

Airport:

Trip Planner

Search our weather history database for the weather conditions in past years. The results will help you decide how hot, cold, wet, or windy it might be!

Date:

Astronomy

Mar. 22, 2013 Rise Set
Actual Time 7:05 AM MDT 7:22 PM MDT
Civil Twilight 6:36 AM MDT 7:51 PM MDT
Nautical Twilight 6:02 AM MDT 8:25 PM MDT
Astronomical Twilight 5:27 AM MDT 9:00 PM MDT
Moon 2:43 PM MDT (3/22) 4:17 AM MDT (3/22)
Length of Visible Light 13h 14m
Length of Day
12h 16m
Waxing Gibbous, 78% of the Moon is Illuminated
Mar 22
Waxing Gibbous
Mar 27
Full
Apr 2
Last Quarter
Apr 10
New
Apr 18
First Quarter

Hourly Weather History & Observations

Time (MDT) Temp. Windchill Dew Point Humidity Pressure Visibility Wind Dir Wind Speed Gust Speed Precip Events Conditions
12:53 AM 24.1 °F 18.2 °F 14.0 °F 65% 29.91 in 10.0 mi NNW 4.6 mph - N/A   Clear
1:53 AM 27.0 °F 18.0 °F 12.9 °F 56% 29.90 in 10.0 mi NNW 9.2 mph - N/A   Mostly Cloudy
2:53 AM 28.0 °F 16.5 °F 10.9 °F 49% 29.88 in 10.0 mi NNW 15.0 mph 25.3 mph N/A   Scattered Clouds
3:53 AM 26.1 °F 15.6 °F 10.9 °F 53% 29.88 in 10.0 mi NW 11.5 mph - N/A   Overcast
4:53 AM 25.0 °F 14.2 °F 12.0 °F 58% 29.86 in 10.0 mi NNW 11.5 mph - N/A   Overcast
5:53 AM 24.1 °F 13.7 °F 12.0 °F 60% 29.88 in 10.0 mi NW 10.4 mph - N/A   Overcast
6:53 AM 25.0 °F 14.8 °F 10.9 °F 55% 29.88 in 10.0 mi NNW 10.4 mph - N/A   Overcast
7:53 AM 25.0 °F 15.5 °F 12.0 °F 58% 29.88 in 10.0 mi NW 9.2 mph - N/A   Overcast
8:53 AM 26.1 °F 15.0 °F 12.0 °F 55% 29.88 in 10.0 mi North 12.7 mph 23.0 mph N/A   Overcast
9:53 AM 26.1 °F 13.6 °F 12.9 °F 58% 29.88 in 10.0 mi North 16.1 mph 24.2 mph N/A   Overcast
10:53 AM 27.0 °F 13.5 °F 12.9 °F 56% 29.90 in 10.0 mi North 19.6 mph - N/A   Overcast
11:53 AM 28.0 °F 14.6 °F 12.9 °F 53% 29.90 in 10.0 mi North 20.7 mph 27.6 mph N/A   Overcast
12:53 PM 28.9 °F 16.1 °F 15.1 °F 56% 29.91 in 10.0 mi North 19.6 mph 27.6 mph N/A   Mostly Cloudy
1:53 PM 28.9 °F 15.8 °F 15.1 °F 56% 29.90 in 10.0 mi North 20.7 mph 28.8 mph N/A   Overcast
2:53 PM 28.9 °F 16.1 °F 12.9 °F 51% 29.89 in 10.0 mi NNW 19.6 mph 26.5 mph N/A   Overcast
3:53 PM 30.9 °F 18.7 °F 12.9 °F 47% 29.91 in 10.0 mi North 19.6 mph - N/A   Overcast
4:53 PM 28.0 °F 13.6 °F 19.9 °F 72% 29.95 in 10.0 mi NNW 24.2 mph 35.7 mph N/A   Overcast
5:41 PM 26.6 °F 12.7 °F 17.6 °F 69% 29.88 in 10.0 mi North 20.7 mph 31.1 mph N/A   Overcast
5:53 PM 26.1 °F 13.1 °F 18.0 °F 71% 30.00 in 9.0 mi North 17.3 mph 28.8 mph 0.00 in Snow Light Snow
6:08 PM 24.8 °F 11.5 °F 17.6 °F 74% 29.90 in 2.0 mi NNW 17.3 mph 25.3 mph 0.00 in Snow Light Snow
6:12 PM 24.8 °F 10.3 °F 19.4 °F 80% 29.90 in 0.2 mi NNW 20.7 mph 26.5 mph 0.00 in Fog , Snow Heavy Snow
6:22 PM 23.0 °F 8.3 °F 19.4 °F 86% 29.91 in 0.2 mi NNW 19.6 mph 31.1 mph 0.00 in Fog , Snow Heavy Snow
6:42 PM 21.2 °F 3.3 °F 19.4 °F 93% 29.91 in 0.2 mi NNW 28.8 mph 39.1 mph 0.01 in Fog , Snow Heavy Snow
6:53 PM 21.9 °F 5.5 °F 19.0 °F 89% 30.04 in 0.2 mi NNW 24.2 mph 40.3 mph 0.01 in Fog , Snow Heavy Snow
6:58 PM 21.2 °F 5.6 °F 19.4 °F 93% 29.92 in 0.2 mi NNW 20.7 mph 35.7 mph 0.00 in Fog , Snow Snow
7:03 PM 21.2 °F 6.0 °F 19.4 °F 93% 29.92 in 1.0 mi NNW 19.6 mph - 0.00 in Snow Light Snow
7:17 PM 21.2 °F 6.0 °F 19.4 °F 93% 29.93 in 0.5 mi NNW 19.6 mph 32.2 mph 0.00 in Fog , Snow Snow
7:25 PM 21.2 °F 6.4 °F 17.6 °F 86% 29.93 in 1.0 mi NNW 18.4 mph 27.6 mph 0.00 in Snow Light Snow
7:30 PM 21.2 °F 6.0 °F 17.6 °F 86% 29.93 in 2.5 mi NNW 19.6 mph - 0.00 in Snow Light Snow
7:35 PM 21.2 °F 4.9 °F 17.6 °F 86% 29.94 in 3.0 mi NNW 23.0 mph 31.1 mph 0.00 in Snow Light Snow
7:53 PM 21.0 °F 5.4 °F 17.1 °F 85% 30.07 in 3.0 mi NNW 20.7 mph 38.0 mph 0.00 in Snow Light Snow
8:08 PM 19.4 °F 2.8 °F 15.8 °F 86% 29.95 in 2.5 mi NNW 21.9 mph 27.6 mph 0.00 in Snow Light Snow
8:17 PM 19.4 °F 3.2 °F 15.8 °F 86% 29.96 in 4.0 mi NNW 20.7 mph 32.2 mph 0.00 in Snow Light Snow
8:53 PM 19.0 °F 2.0 °F 15.1 °F 85% 30.09 in 2.5 mi North 23.0 mph 34.5 mph 0.00 in Snow Light Snow
9:01 PM 17.6 °F -1.0 °F 15.8 °F 93% 29.97 in 3.0 mi North 26.5 mph 34.5 mph 0.00 in Snow Light Snow
9:15 PM 17.6 °F 0.5 °F 14.0 °F 86% 29.98 in 4.0 mi North 21.9 mph 34.5 mph 0.00 in Snow Light Snow
9:53 PM 19.0 °F 2.4 °F 15.1 °F 85% 30.12 in 3.0 mi North 21.9 mph 32.2 mph 0.00 in Snow Light Snow
10:53 PM 16.0 °F -0.4 °F 12.9 °F 88% 30.13 in 7.0 mi North 18.4 mph - 0.00 in   Unknown
11:02 PM 15.8 °F -1.1 °F 12.2 °F 86% 30.00 in 9.0 mi North 19.6 mph - N/A   Scattered Clouds
11:16 PM 15.8 °F -0.2 °F 12.2 °F 86% 30.00 in 7.0 mi North 17.3 mph 23.0 mph N/A   Mostly Cloudy
11:26 PM 15.8 °F 0.9 °F 12.2 °F 86% 30.00 in 7.0 mi North 15.0 mph 23.0 mph N/A   Scattered Clouds
11:53 PM 15.1 °F 3.3 °F 10.9 °F 84% 30.15 in 9.0 mi North 9.2 mph 18.4 mph N/A   Clear